This demonstration page uses our WeatherBlox Daily Observations layout. Learn more.

Left ArrowRight Arrow

53.62937, 11.41316

Hourly Observations for May 31, 2019

Temp ( °F °C ) Dew Point ( °F °C ) Humidity (%) Winds ( mph kmh ) Pressure ( in mb ) Visibility ( mi km ) Precip ( " mm )
6:50 am 06:50 Mostly Cloudy 61 16 57 14 88 88 WSW 8 13 30.12 1020 30 48 N/A
7:20 am 07:20 Mostly Cloudy 61 16 59 15 94 94 WSW 8 13 30.12 1020 30 48 N/A
7:50 am 07:50 Mostly Cloudy 61 16 59 15 94 94 WSW 10 17 30.15 1021 30 48 N/A
8:20 am 08:20 Mostly Cloudy 61 16 59 15 94 94 WSW 10 17 30.15 1021 30 48 N/A
8:50 am 08:50 Mostly Cloudy 63 17 59 15 88 88 WSW 10 17 30.15 1021 30 48 N/A
9:20 am 09:20 Mostly Cloudy 63 17 59 15 88 88 WSW 12 19 30.15 1021 30 48 N/A
9:50 am 09:50 Mostly Cloudy 64 18 59 15 83 83 WSW 10 17 30.15 1021 30 48 N/A
10:20 am 10:20 Mostly Cloudy 66 19 59 15 78 78 W 12 19 30.15 1021 30 48 N/A
10:50 am 10:50 Mostly Cloudy 66 19 57 14 73 73 WSW 13 20 30.15 1021 30 48 N/A
11:20 am 11:20 Partly Cloudy 68 20 59 15 73 73 W 12 19 30.15 1021 30 48 N/A
11:50 am 11:50 Partly Cloudy 68 20 57 14 69 69 W 9 15 30.15 1021 30 48 N/A
12:20 pm 12:20 Mostly Cloudy 70 21 57 14 64 64 W 9 15 30.15 1021 30 48 N/A
12:50 pm 12:50 Partly Cloudy 70 21 57 14 64 64 W 15 24 30.15 1021 30 48 N/A
1:20 pm 13:20 Partly Cloudy 70 21 57 14 64 64 W 12 19 30.15 1021 30 48 N/A
1:50 pm 13:50 Mostly Cloudy 70 21 57 14 64 64 W 8 13 30.15 1021 30 48 N/A
2:20 pm 14:20 Partly Cloudy 70 21 57 14 64 64 W 8 13 30.18 1022 30 48 N/A
2:50 pm 14:50 Partly Cloudy 68 20 57 14 69 69 W 7 11 30.18 1022 30 48 N/A
3:20 pm 15:20 Mostly Sunny 70 21 57 14 64 64 W 8 13 30.18 1022 30 48 N/A
3:50 pm 15:50 Partly Cloudy 72 22 55 13 57 57 W 9 15 30.18 1022 30 48 N/A
4:20 pm 16:20 Partly Cloudy 73 23 55 13 53 53 W 10 17 30.15 1021 30 48 N/A
4:50 pm 16:50 Partly Cloudy 72 22 54 12 53 53 W 10 17 30.18 1022 30 48 N/A
5:20 pm 17:20 Partly Cloudy 72 22 55 13 57 57 W 8 13 30.18 1022 30 48 N/A
5:50 pm 17:50 Mostly Sunny 70 21 54 12 57 57 W 7 11 30.18 1022 7 11 N/A
6:20 pm 18:20 Mostly Sunny 70 21 55 13 60 60 W 7 11 30.18 1022 30 48 N/A
6:50 pm 18:50 Mostly Sunny 68 20 55 13 64 64 WNW 7 11 30.18 1022 30 48 N/A
7:20 pm 19:20 Mostly Sunny 68 20 54 12 60 60 W 5 7 30.18 1022 7 11 N/A
7:50 pm 19:50 Mostly Sunny 68 20 55 13 64 64 WNW 5 7 30.18 1022 7 11 N/A
8:20 pm 20:20 Mostly Sunny 66 19 54 12 64 64 W 5 7 30.18 1022 7 11 N/A
8:50 pm 20:50 Mostly Sunny 66 19 55 13 68 68 W 3 6 30.18 1022 7 11 N/A

Powered by AerisWeather